Time,TemperatureF,DewpointF,PressureIn,WindDirection,WindDirectionDegrees,WindSpeedMPH,WindSpeedGustMPH,Humidity,HourlyPrecipIn,Conditions,Clouds,dailyrainin,SoftwareType,DateUTC
2015-09-03 00:00:00,47.6,39.0,29.77,NNW,343,0.0,2.0,72,0.00,,,0.00,Wunderground v.1.15,2015-09-03 07:00:00,
2015-09-03 00:09:00,48.0,39.0,29.77,NNW,342,0.0,2.0,71,0.00,,,0.00,Wunderground v.1.15,2015-09-03 07:09:00,
2015-09-03 00:20:00,47.9,39.7,29.77,NNW,344,0.0,2.0,73,0.00,,,0.00,Wunderground v.1.15,2015-09-03 07:20:00,
2015-09-03 00:29:00,47.8,39.2,29.77,NNW,347,0.0,2.0,72,0.00,,,0.00,Wunderground v.1.15,2015-09-03 07:29:00,
2015-09-03 00:40:00,47.8,38.8,29.76,NNW,347,0.0,2.0,71,0.00,,,0.00,Wunderground v.1.15,2015-09-03 07:40:00,
2015-09-03 00:49:00,47.3,39.1,29.77,NNW,346,0.0,2.0,73,0.00,,,0.00,Wunderground v.1.15,2015-09-03 07:49:00,
2015-09-03 00:59:00,46.8,39.3,29.76,NNW,346,0.0,2.0,75,0.00,,,0.00,Wunderground v.1.15,2015-09-03 07:59:00,
2015-09-03 01:05:00,46.4,39.2,29.76,NNW,346,0.0,2.0,76,0.00,,,0.00,Wunderground v.1.15,2015-09-03 08:05:00,
2015-09-03 01:14:00,46.0,39.9,29.76,NNW,345,0.0,2.0,79,0.00,,,0.00,Wunderground v.1.15,2015-09-03 08:14:00,
2015-09-03 01:25:00,46.0,39.2,29.77,NNW,347,0.0,2.0,77,0.00,,,0.00,Wunderground v.1.15,2015-09-03 08:25:00,
2015-09-03 01:34:00,45.8,39.3,29.77,North,11,0.0,2.0,78,0.00,,,0.00,Wunderground v.1.15,2015-09-03 08:34:00,
2015-09-03 01:45:00,45.4,39.6,29.77,West,281,0.0,2.0,80,0.00,,,0.00,Wunderground v.1.15,2015-09-03 08:45:00,
2015-09-03 01:54:00,45.5,39.7,29.77,West,281,0.0,2.0,80,0.00,,,0.00,Wunderground v.1.15,2015-09-03 08:54:00,
2015-09-03 02:00:00,45.1,39.0,29.77,West,281,0.0,0.0,79,0.00,,,0.00,Wunderground v.1.15,2015-09-03 09:00:00,
2015-09-03 02:10:00,44.5,38.7,29.77,West,281,0.0,0.0,80,0.00,,,0.00,Wunderground v.1.15,2015-09-03 09:10:00,
2015-09-03 02:19:00,44.6,39.4,29.77,West,281,0.0,0.0,82,0.00,,,0.00,Wunderground v.1.15,2015-09-03 09:19:00,
2015-09-03 02:30:00,44.5,39.0,29.78,NNW,345,0.0,1.0,81,0.00,,,0.00,Wunderground v.1.15,2015-09-03 09:30:00,
2015-09-03 02:39:00,44.9,39.7,29.79,NW,316,0.0,0.0,82,0.00,,,0.00,Wunderground v.1.15,2015-09-03 09:39:00,
2015-09-03 02:50:00,44.9,40.0,29.78,NW,316,0.0,0.0,83,0.00,,,0.00,Wunderground v.1.15,2015-09-03 09:50:00,
2015-09-03 02:59:00,45.4,40.8,29.78,North,11,0.0,0.0,84,0.00,,,0.00,Wunderground v.1.15,2015-09-03 09:59:00,
2015-09-03 03:10:00,46.6,41.7,29.79,SSW,209,2.0,2.0,83,0.00,,,0.01,Wunderground v.1.15,2015-09-03 10:10:00,
2015-09-03 03:15:00,46.7,42.1,29.80,NNE,13,1.0,2.0,84,0.00,,,0.01,Wunderground v.1.15,2015-09-03 10:15:00,
2015-09-03 03:24:00,46.5,42.5,29.80,NE,39,0.0,0.0,86,0.00,,,0.01,Wunderground v.1.15,2015-09-03 10:24:00,
2015-09-03 03:30:00,46.3,42.6,29.78,NNE,32,1.0,2.0,87,0.00,,,0.02,Wunderground v.1.15,2015-09-03 10:30:00,
2015-09-03 03:40:00,46.7,43.0,29.79,WSW,255,1.0,5.0,87,0.00,,,0.02,Wunderground v.1.15,2015-09-03 10:40:00,
2015-09-03 03:49:00,46.4,42.7,29.80,NNE,13,2.0,2.0,87,0.00,,,0.02,Wunderground v.1.15,2015-09-03 10:49:00,
2015-09-03 03:55:00,46.5,42.8,29.81,North,349,1.0,2.0,87,0.00,,,0.02,Wunderground v.1.15,2015-09-03 10:55:00,
2015-09-03 04:04:00,46.8,43.4,29.81,NE,46,1.0,1.0,88,0.00,,,0.02,Wunderground v.1.15,2015-09-03 11:04:00,
2015-09-03 04:15:00,46.6,43.5,29.81,South,182,0.0,0.0,89,0.00,,,0.02,Wunderground v.1.15,2015-09-03 11:15:00,
2015-09-03 04:24:00,47.1,44.3,29.81,WSW,248,0.0,0.0,90,0.00,,,0.02,Wunderground v.1.15,2015-09-03 11:24:00,
2015-09-03 04:35:00,47.2,44.1,29.81,WSW,245,0.0,0.0,89,0.00,,,0.02,Wunderground v.1.15,2015-09-03 11:35:00,
2015-09-03 04:45:00,46.9,44.1,29.81,NNW,338,0.0,0.0,90,0.00,,,0.02,Wunderground v.1.15,2015-09-03 11:45:00,
2015-09-03 04:55:00,46.4,43.6,29.81,West,269,0.0,0.0,90,0.00,,,0.02,Wunderground v.1.15,2015-09-03 11:55:00,
2015-09-03 05:05:00,46.0,43.5,29.82,West,269,0.0,0.0,91,0.00,,,0.02,Wunderground v.1.15,2015-09-03 12:05:00,
2015-09-03 05:14:00,45.3,42.8,29.81,NE,34,0.0,0.0,91,0.00,,,0.02,Wunderground v.1.15,2015-09-03 12:14:00,
2015-09-03 05:20:00,45.1,42.6,29.82,ESE,115,0.0,0.0,91,0.00,,,0.02,Wunderground v.1.15,2015-09-03 12:20:00,
2015-09-03 05:29:00,44.4,41.9,29.82,ESE,115,0.0,0.0,91,0.00,,,0.02,Wunderground v.1.15,2015-09-03 12:29:00,
2015-09-03 05:40:00,43.9,41.7,29.83,ESE,115,0.0,0.0,92,0.00,,,0.02,Wunderground v.1.15,2015-09-03 12:40:00,
2015-09-03 05:50:00,43.5,41.3,29.83,ESE,115,0.0,0.0,92,0.00,,,0.02,Wunderground v.1.15,2015-09-03 12:50:00,
2015-09-03 06:00:00,43.3,41.4,29.83,ESE,115,0.0,0.0,93,0.00,,,0.02,Wunderground v.1.15,2015-09-03 13:00:00,
2015-09-03 06:10:00,43.0,41.1,29.84,ESE,113,0.0,0.0,93,0.00,,,0.02,Wunderground v.1.15,2015-09-03 13:10:00,
2015-09-03 06:19:00,42.7,41.1,29.84,ESE,115,0.0,0.0,94,0.00,,,0.02,Wunderground v.1.15,2015-09-03 13:19:00,
2015-09-03 06:25:00,42.6,41.0,29.85,ESE,115,0.0,0.0,94,0.00,,,0.02,Wunderground v.1.15,2015-09-03 13:25:00,
2015-09-03 06:34:00,42.7,41.1,29.85,ESE,122,0.0,0.0,94,0.00,,,0.02,Wunderground v.1.15,2015-09-03 13:34:00,
2015-09-03 06:45:00,43.3,42.0,29.86,WSW,239,0.0,0.0,95,0.00,,,0.02,Wunderground v.1.15,2015-09-03 13:45:00,
2015-09-03 06:54:00,43.3,42.0,29.86,SW,229,0.0,0.0,95,0.00,,,0.02,Wunderground v.1.15,2015-09-03 13:54:00,
2015-09-03 07:05:00,43.2,41.9,29.86,SW,229,0.0,0.0,95,0.00,,,0.02,Wunderground v.1.15,2015-09-03 14:05:00,
2015-09-03 07:15:00,43.1,41.8,29.87,SW,229,0.0,0.0,95,0.00,,,0.02,Wunderground v.1.15,2015-09-03 14:15:00,
2015-09-03 07:24:00,43.6,42.3,29.87,SW,230,0.0,0.0,95,0.00,,,0.02,Wunderground v.1.15,2015-09-03 14:24:00,
2015-09-03 07:30:00,44.1,42.8,29.87,SW,230,0.0,0.0,95,0.00,,,0.02,Wunderground v.1.15,2015-09-03 14:30:00,
2015-09-03 07:39:00,45.8,44.4,29.87,SW,230,0.0,0.0,95,0.00,,,0.02,Wunderground v.1.15,2015-09-03 14:39:00,
2015-09-03 07:50:00,47.1,45.5,29.87,SW,219,0.0,0.0,94,0.00,,,0.02,Wunderground v.1.15,2015-09-03 14:50:00,
2015-09-03 07:59:00,49.0,47.1,29.87,SE,141,0.0,0.0,93,0.00,,,0.02,Wunderground v.1.15,2015-09-03 14:59:00,
2015-09-03 08:09:00,50.1,47.3,29.88,SSE,155,0.0,0.0,90,0.00,,,0.02,Wunderground v.1.15,2015-09-03 15:09:00,
2015-09-03 08:15:00,50.1,47.0,29.88,South,172,0.0,0.0,89,0.00,,,0.02,Wunderground v.1.15,2015-09-03 15:15:00,
2015-09-03 08:24:00,50.7,47.0,29.88,SSW,213,0.0,0.0,87,0.00,,,0.02,Wunderground v.1.15,2015-09-03 15:24:00,
2015-09-03 08:35:00,51.7,47.3,29.88,South,184,0.0,0.0,85,0.00,,,0.02,Wunderground v.1.15,2015-09-03 15:35:00,
2015-09-03 08:44:00,52.5,47.5,29.87,SE,134,0.0,0.0,83,0.00,,,0.02,Wunderground v.1.15,2015-09-03 15:44:00,
2015-09-03 08:55:00,52.9,46.9,29.87,SW,214,0.0,0.0,80,0.00,,,0.02,Wunderground v.1.15,2015-09-03 15:55:00,
2015-09-03 09:04:00,54.3,47.6,29.87,SSW,197,0.0,0.0,78,0.00,,,0.02,Wunderground v.1.15,2015-09-03 16:04:00,
2015-09-03 09:14:00,54.8,47.7,29.88,SSE,158,0.0,1.0,77,0.00,,,0.02,Wunderground v.1.15,2015-09-03 16:14:00,
2015-09-03 09:20:00,55.1,47.7,29.87,SSW,212,0.0,0.0,76,0.00,,,0.02,Wunderground v.1.15,2015-09-03 16:20:00,
2015-09-03 09:29:00,55.1,47.7,29.87,SSW,195,1.0,1.0,76,0.00,,,0.02,Wunderground v.1.15,2015-09-03 16:29:00,
2015-09-03 09:40:00,55.9,47.4,29.87,ESE,121,1.0,1.0,73,0.00,,,0.02,Wunderground v.1.15,2015-09-03 16:40:00,
2015-09-03 09:49:00,56.7,47.8,29.87,SSW,202,0.0,1.0,72,0.00,,,0.02,Wunderground v.1.15,2015-09-03 16:49:00,
2015-09-03 10:00:00,57.0,47.7,29.87,SW,218,1.0,1.0,71,0.00,,,0.02,Wunderground v.1.15,2015-09-03 17:00:00,
2015-09-03 10:09:00,57.9,48.2,29.87,NNE,25,1.0,1.0,70,0.00,,,0.02,Wunderground v.1.15,2015-09-03 17:09:00,
2015-09-03 10:20:00,58.6,47.7,29.87,SW,217,1.0,2.0,67,0.00,,,0.03,Wunderground v.1.15,2015-09-03 17:20:00,
2015-09-03 10:29:00,59.5,48.9,29.87,SSW,194,2.0,2.0,68,0.00,,,0.03,Wunderground v.1.15,2015-09-03 17:29:00,
2015-09-03 10:39:00,60.2,48.0,29.87,South,191,2.0,2.0,64,0.00,,,0.03,Wunderground v.1.15,2015-09-03 17:39:00,
2015-09-03 10:45:00,60.5,47.0,29.87,SSE,162,2.0,3.0,61,0.00,,,0.03,Wunderground v.1.15,2015-09-03 17:45:00,
2015-09-03 10:54:00,61.5,44.2,29.87,SSW,205,3.0,5.0,53,0.00,,,0.03,Wunderground v.1.15,2015-09-03 17:54:00,
2015-09-03 11:05:00,61.9,43.0,29.87,SSE,150,5.0,5.0,50,0.00,,,0.03,Wunderground v.1.15,2015-09-03 18:05:00,
2015-09-03 11:14:00,62.4,40.8,29.87,SW,220,5.0,6.0,45,0.00,,,0.03,Wunderground v.1.15,2015-09-03 18:14:00,
2015-09-03 11:25:00,62.1,41.1,29.87,SW,234,7.0,9.0,46,0.00,,,0.03,Wunderground v.1.15,2015-09-03 18:25:00,
2015-09-03 11:34:00,61.8,40.2,29.87,SSW,203,8.0,8.0,45,0.00,,,0.03,Wunderground v.1.15,2015-09-03 18:34:00,
2015-09-03 11:45:00,62.6,40.4,29.87,South,185,6.0,7.0,44,0.00,,,0.03,Wunderground v.1.15,2015-09-03 18:45:00,
2015-09-03 11:54:00,63.4,41.1,29.87,SSE,162,4.0,4.0,44,0.00,,,0.03,Wunderground v.1.15,2015-09-03 18:54:00,
2015-09-03 12:04:00,63.6,41.3,29.86,South,180,4.0,9.0,44,0.00,,,0.03,Wunderground v.1.15,2015-09-03 19:04:00,
2015-09-03 12:10:00,63.7,39.5,29.86,SSW,205,5.0,5.0,41,0.00,,,0.03,Wunderground v.1.15,2015-09-03 19:10:00,
2015-09-03 12:19:00,64.2,39.4,29.86,SSE,160,4.0,5.0,40,0.00,,,0.03,Wunderground v.1.15,2015-09-03 19:19:00,
2015-09-03 12:30:00,64.5,39.6,29.86,SW,232,5.0,5.0,40,0.00,,,0.03,Wunderground v.1.15,2015-09-03 19:30:00,
2015-09-03 12:39:00,65.4,40.4,29.85,SE,138,3.0,3.0,40,0.00,,,0.03,Wunderground v.1.15,2015-09-03 19:39:00,
2015-09-03 12:50:00,65.7,40.7,29.85,WSW,243,4.0,4.0,40,0.00,,,0.03,Wunderground v.1.15,2015-09-03 19:50:00,
2015-09-03 12:59:00,66.0,39.7,29.85,SE,128,4.0,6.0,38,0.00,,,0.03,Wunderground v.1.15,2015-09-03 19:59:00,
2015-09-03 13:10:00,65.9,39.6,29.85,SE,146,6.0,6.0,38,0.00,,,0.03,Wunderground v.1.15,2015-09-03 20:10:00,
2015-09-03 13:19:00,66.0,39.0,29.84,SSE,150,4.0,4.0,37,0.00,,,0.03,Wunderground v.1.15,2015-09-03 20:19:00,
2015-09-03 13:29:00,66.6,38.8,29.84,ESE,117,4.0,7.0,36,0.00,,,0.03,Wunderground v.1.15,2015-09-03 20:29:00,
2015-09-03 13:35:00,66.8,39.0,29.84,South,176,4.0,7.0,36,0.00,,,0.03,Wunderground v.1.15,2015-09-03 20:35:00,
2015-09-03 13:44:00,67.9,40.7,29.84,SSE,163,3.0,3.0,37,0.00,,,0.03,Wunderground v.1.15,2015-09-03 20:44:00,
2015-09-03 13:55:00,67.6,39.7,29.83,SSE,148,4.0,6.0,36,0.00,,,0.03,Wunderground v.1.15,2015-09-03 20:55:00,
2015-09-03 14:04:00,67.6,39.7,29.83,South,189,2.0,5.0,36,0.00,,,0.03,Wunderground v.1.15,2015-09-03 21:04:00,
2015-09-03 14:15:00,67.6,37.5,29.83,South,188,5.0,5.0,33,0.00,,,0.03,Wunderground v.1.15,2015-09-03 21:15:00,
2015-09-03 14:24:00,68.0,37.0,29.83,WSW,243,4.0,7.0,32,0.00,,,0.03,Wunderground v.1.15,2015-09-03 21:24:00,
2015-09-03 14:34:00,68.4,38.9,29.82,SE,128,6.0,8.0,34,0.00,,,0.03,Wunderground v.1.15,2015-09-03 21:34:00,
2015-09-03 14:39:00,68.3,37.3,29.83,SSW,207,6.0,8.0,32,0.00,,,0.03,Wunderground v.1.15,2015-09-03 21:39:00,
2015-09-03 14:49:00,68.0,36.2,29.83,SSW,212,4.0,8.0,31,0.00,,,0.03,Wunderground v.1.15,2015-09-03 21:49:00,
2015-09-03 15:00:00,67.7,36.0,29.82,ESE,113,5.0,5.0,31,0.00,,,0.03,Wunderground v.1.15,2015-09-03 22:00:00,
2015-09-03 15:45:00,68.0,35.4,29.82,South,184,3.0,3.0,30,0.00,,,0.03,Wunderground v.1.15,2015-09-03 22:45:00,
2015-09-03 15:54:00,67.6,36.7,29.82,SSW,208,2.0,6.0,32,0.00,,,0.03,Wunderground v.1.15,2015-09-03 22:54:00,
2015-09-03 16:04:00,68.2,34.7,29.81,SSE,165,5.0,7.0,29,0.00,,,0.03,Wunderground v.1.15,2015-09-03 23:04:00,
2015-09-03 16:09:00,68.6,35.9,29.81,South,174,4.0,4.0,30,0.00,,,0.03,Wunderground v.1.15,2015-09-03 23:09:00,
2015-09-03 16:19:00,69.0,33.6,29.81,SSE,163,3.0,3.0,27,0.00,,,0.03,Wunderground v.1.15,2015-09-03 23:19:00,
2015-09-03 16:24:00,69.1,34.6,29.81,SSW,210,4.0,6.0,28,0.00,,,0.03,Wunderground v.1.15,2015-09-03 23:24:00,
2015-09-03 16:30:00,69.1,35.5,29.81,SSE,159,4.0,5.0,29,0.00,,,0.03,Wunderground v.1.15,2015-09-03 23:30:00,
2015-09-03 16:39:00,68.8,36.1,29.81,South,174,3.0,3.0,30,0.00,,,0.03,Wunderground v.1.15,2015-09-03 23:39:00,
2015-09-03 16:50:00,67.9,33.6,29.81,SSE,166,2.0,2.0,28,0.00,,,0.03,Wunderground v.1.15,2015-09-03 23:50:00,
2015-09-03 16:59:00,67.6,36.7,29.81,SSW,207,2.0,2.0,32,0.00,,,0.03,Wunderground v.1.15,2015-09-03 23:59:00,
2015-09-03 17:10:00,68.7,35.1,29.81,SSE,158,2.0,2.0,29,0.00,,,0.03,Wunderground v.1.15,2015-09-04 00:10:00,
2015-09-03 17:19:00,68.5,35.8,29.81,ESE,123,2.0,3.0,30,0.00,,,0.03,Wunderground v.1.15,2015-09-04 00:19:00,
2015-09-03 17:29:00,67.5,35.0,29.82,South,176,2.0,5.0,30,0.00,,,0.03,Wunderground v.1.15,2015-09-04 00:29:00,
2015-09-03 17:34:00,66.9,34.4,29.81,SE,146,2.0,5.0,30,0.00,,,0.03,Wunderground v.1.15,2015-09-04 00:34:00,
2015-09-03 17:44:00,67.9,33.6,29.82,SSE,148,2.0,5.0,28,0.00,,,0.03,Wunderground v.1.15,2015-09-04 00:44:00,
2015-09-03 17:55:00,68.0,34.5,29.82,SSW,193,3.0,5.0,29,0.00,,,0.03,Wunderground v.1.15,2015-09-04 00:55:00,
2015-09-03 18:04:00,66.7,35.1,29.82,SE,139,4.0,4.0,31,0.00,,,0.03,Wunderground v.1.15,2015-09-04 01:04:00,
2015-09-03 18:15:00,65.2,35.4,29.82,SSE,165,2.0,3.0,33,0.00,,,0.03,Wunderground v.1.15,2015-09-04 01:15:00,
2015-09-03 18:24:00,64.4,35.4,29.83,WSW,239,1.0,1.0,34,0.00,,,0.03,Wunderground v.1.15,2015-09-04 01:24:00,
2015-09-03 18:35:00,64.7,34.9,29.83,SE,141,1.0,1.0,33,0.00,,,0.03,Wunderground v.1.15,2015-09-04 01:35:00,
2015-09-03 18:44:00,64.8,35.8,29.83,SE,139,1.0,2.0,34,0.00,,,0.03,Wunderground v.1.15,2015-09-04 01:44:00,
2015-09-03 18:54:00,63.7,36.2,29.83,SE,134,0.0,2.0,36,0.00,,,0.03,Wunderground v.1.15,2015-09-04 01:54:00,
2015-09-03 18:59:00,62.8,36.1,29.83,SE,137,0.0,0.0,37,0.00,,,0.03,Wunderground v.1.15,2015-09-04 01:59:00,
2015-09-03 19:09:00,61.3,36.8,29.83,SSE,161,0.0,0.0,40,0.00,,,0.03,Wunderground v.1.15,2015-09-04 02:09:00,
2015-09-03 19:20:00,59.7,36.6,29.83,SSE,155,0.0,0.0,42,0.00,,,0.03,Wunderground v.1.15,2015-09-04 02:20:00,
2015-09-03 19:29:00,58.4,35.4,29.83,SE,141,0.0,0.0,42,0.00,,,0.03,Wunderground v.1.15,2015-09-04 02:29:00,
2015-09-03 19:40:00,57.9,35.5,29.83,SSE,167,0.0,0.0,43,0.00,,,0.03,Wunderground v.1.15,2015-09-04 02:40:00,
2015-09-03 19:49:00,57.4,35.1,29.84,SSE,164,0.0,0.0,43,0.00,,,0.03,Wunderground v.1.15,2015-09-04 02:49:00,
2015-09-03 20:00:00,56.9,34.6,29.84,South,169,0.0,0.0,43,0.00,,,0.03,Wunderground v.1.15,2015-09-04 03:00:00,
2015-09-03 20:09:00,56.9,35.2,29.84,South,169,0.0,0.0,44,0.00,,,0.03,Wunderground v.1.15,2015-09-04 03:09:00,
2015-09-03 20:19:00,56.1,37.2,29.85,South,169,0.0,0.0,49,0.00,,,0.03,Wunderground v.1.15,2015-09-04 03:19:00,
2015-09-03 20:25:00,55.3,37.0,29.85,South,169,0.0,0.0,50,0.00,,,0.03,Wunderground v.1.15,2015-09-04 03:25:00,
2015-09-03 20:34:00,54.1,37.8,29.85,South,169,0.0,0.0,54,0.00,,,0.03,Wunderground v.1.15,2015-09-04 03:34:00,
2015-09-03 20:45:00,53.2,37.4,29.85,SSE,159,0.0,0.0,55,0.00,,,0.03,Wunderground v.1.15,2015-09-04 03:45:00,
2015-09-03 20:54:00,52.2,37.4,29.85,SSW,209,0.0,1.0,57,0.00,,,0.03,Wunderground v.1.15,2015-09-04 03:54:00,
2015-09-03 21:05:00,51.6,37.7,29.86,SW,234,0.0,0.0,59,0.00,,,0.03,Wunderground v.1.15,2015-09-04 04:05:00,
2015-09-03 21:14:00,51.2,35.6,29.86,ENE,58,0.0,1.0,55,0.00,,,0.03,Wunderground v.1.15,2015-09-04 04:14:00,
2015-09-03 21:24:00,50.3,35.2,29.86,ENE,58,0.0,0.0,56,0.00,,,0.03,Wunderground v.1.15,2015-09-04 04:24:00,
2015-09-03 21:29:00,50.0,34.9,29.86,North,7,0.0,0.0,56,0.00,,,0.03,Wunderground v.1.15,2015-09-04 04:29:00,
2015-09-03 21:39:00,49.5,35.3,29.86,North,6,0.0,0.0,58,0.00,,,0.03,Wunderground v.1.15,2015-09-04 04:39:00,
2015-09-03 21:50:00,49.1,35.4,29.86,North,2,0.0,0.0,59,0.00,,,0.03,Wunderground v.1.15,2015-09-04 04:50:00,
2015-09-03 21:59:00,48.7,35.8,29.87,North,1,0.0,0.0,61,0.00,,,0.03,Wunderground v.1.15,2015-09-04 04:59:00,
2015-09-03 22:10:00,47.7,35.7,29.87,North,1,0.0,0.0,63,0.00,,,0.03,Wunderground v.1.15,2015-09-04 05:10:00,
2015-09-03 22:19:00,46.8,36.4,29.87,North,1,0.0,0.0,67,0.00,,,0.03,Wunderground v.1.15,2015-09-04 05:19:00,
2015-09-03 22:30:00,45.9,36.7,29.87,North,1,0.0,0.0,70,0.00,,,0.03,Wunderground v.1.15,2015-09-04 05:30:00,
2015-09-03 22:39:00,45.2,36.0,29.88,North,1,0.0,0.0,70,0.00,,,0.03,Wunderground v.1.15,2015-09-04 05:39:00,
2015-09-03 22:49:00,44.3,35.1,29.88,North,1,0.0,0.0,70,0.00,,,0.03,Wunderground v.1.15,2015-09-04 05:49:00,
2015-09-03 22:54:00,44.5,35.0,29.88,North,1,0.0,0.0,69,0.00,,,0.03,Wunderground v.1.15,2015-09-04 05:54:00,
2015-09-03 23:04:00,44.2,35.4,29.88,North,1,0.0,0.0,71,0.00,,,0.03,Wunderground v.1.15,2015-09-04 06:04:00,
2015-09-03 23:15:00,44.0,35.9,29.88,North,1,0.0,0.0,73,0.00,,,0.03,Wunderground v.1.15,2015-09-04 06:15:00,
2015-09-03 23:24:00,43.1,35.0,29.88,North,1,0.0,0.0,73,0.00,,,0.03,Wunderground v.1.15,2015-09-04 06:24:00,